Time,TemperatureF,DewpointF,PressureIn,WindDirection,WindDirectionDegrees,WindSpeedMPH,WindSpeedGustMPH,Humidity,HourlyPrecipIn,Conditions,Clouds,dailyrainin,SoftwareType,DateUTC
2013-05-06 00:02:00,53.0,50.0,29.87,NW,315,1.0,7.0,90,0.00,,,0.50,,2013-05-06 05:02:00,
2013-05-06 00:12:00,53.0,50.0,29.87,NW,315,1.0,7.0,90,0.00,,,0.50,,2013-05-06 05:12:00,
2013-05-06 00:22:00,54.0,51.0,29.86,NW,309,2.0,6.0,90,0.00,,,0.50,,2013-05-06 05:22:00,
2013-05-06 00:32:00,54.0,51.0,29.86,WNW,292,2.0,10.0,90,0.00,,,0.50,,2013-05-06 05:32:00,
2013-05-06 00:42:00,54.0,51.0,29.86,WNW,292,2.0,10.0,90,0.00,,,0.50,,2013-05-06 05:42:00,
2013-05-06 00:52:00,54.0,51.0,29.85,NW,304,2.0,7.0,90,0.00,,,0.50,,2013-05-06 05:52:00,
2013-05-06 01:02:00,54.0,51.0,29.86,NW,317,0.0,8.0,90,0.00,,,0.49,,2013-05-06 06:02:00,
2013-05-06 01:12:00,54.0,51.0,29.86,NW,317,0.0,8.0,90,0.00,,,0.49,,2013-05-06 06:12:00,
2013-05-06 01:21:00,54.0,51.0,29.86,WNW,294,4.0,8.0,90,0.00,,,0.49,,2013-05-06 06:21:00,
2013-05-06 01:31:00,54.0,51.0,29.85,NW,312,2.0,5.0,90,0.00,,,0.49,,2013-05-06 06:31:00,
2013-05-06 01:42:00,54.0,51.0,29.85,NW,312,2.0,5.0,90,0.00,,,0.49,,2013-05-06 06:42:00,
2013-05-06 01:52:00,54.0,51.0,29.85,West,281,1.0,5.0,90,0.00,,,0.49,,2013-05-06 06:52:00,
2013-05-06 02:01:00,54.0,51.0,29.85,West,280,0.0,7.0,90,0.00,,,0.48,,2013-05-06 07:01:00,
2013-05-06 02:11:00,54.0,51.0,29.85,West,280,0.0,7.0,90,0.00,,,0.48,,2013-05-06 07:11:00,
2013-05-06 02:22:00,54.0,51.0,29.84,NW,304,0.0,6.0,90,0.00,,,0.48,,2013-05-06 07:22:00,
2013-05-06 02:31:00,54.0,51.0,29.83,NW,304,0.0,6.0,90,0.00,,,0.48,,2013-05-06 07:31:00,
2013-05-06 02:42:00,54.0,51.0,29.83,NW,304,0.0,6.0,90,0.00,,,0.48,,2013-05-06 07:42:00,
2013-05-06 02:52:00,54.0,51.0,29.84,NW,326,0.0,5.0,90,0.00,,,0.48,,2013-05-06 07:52:00,
2013-05-06 03:02:00,54.0,51.0,29.84,WNW,299,2.0,5.0,90,0.00,,,0.33,,2013-05-06 08:02:00,
2013-05-06 03:12:00,54.0,51.0,29.84,WNW,299,2.0,5.0,90,0.00,,,0.33,,2013-05-06 08:12:00,
2013-05-06 03:22:00,54.0,51.0,29.84,North,351,0.0,4.0,91,0.00,,,0.33,,2013-05-06 08:22:00,
2013-05-06 03:31:00,54.0,51.0,29.84,NW,325,0.0,2.0,91,0.00,,,0.33,,2013-05-06 08:31:00,
2013-05-06 03:41:00,54.0,51.0,29.84,NW,325,0.0,2.0,91,0.00,,,0.33,,2013-05-06 08:41:00,
2013-05-06 03:52:00,54.0,51.0,29.84,West,281,3.0,6.0,91,0.00,,,0.33,,2013-05-06 08:52:00,
2013-05-06 04:01:00,54.0,51.0,29.84,NNW,328,0.0,4.0,91,0.00,,,0.19,,2013-05-06 09:01:00,
2013-05-06 04:11:00,54.0,51.0,29.84,NNW,328,0.0,4.0,91,0.00,,,0.19,,2013-05-06 09:11:00,
2013-05-06 04:22:00,54.0,51.0,29.84,North,355,0.0,0.0,91,0.00,,,0.19,,2013-05-06 09:22:00,
2013-05-06 04:32:00,54.0,51.0,29.84,North,355,0.0,4.0,91,0.00,,,0.19,,2013-05-06 09:32:00,
2013-05-06 04:42:00,54.0,51.0,29.84,North,355,0.0,4.0,91,0.00,,,0.19,,2013-05-06 09:42:00,
2013-05-06 04:53:00,54.0,52.0,29.84,NW,325,0.0,0.0,92,0.00,,,0.19,,2013-05-06 09:53:00,
2013-05-06 05:02:00,54.0,52.0,29.84,NNW,346,0.0,5.0,92,0.00,,,0.14,,2013-05-06 10:02:00,
2013-05-06 05:12:00,54.0,52.0,29.84,NNW,346,0.0,5.0,92,0.00,,,0.14,,2013-05-06 10:12:00,
2013-05-06 05:22:00,54.0,52.0,29.84,NW,320,0.0,0.0,92,0.00,,,0.14,,2013-05-06 10:22:00,
2013-05-06 05:33:00,54.0,52.0,29.84,North,355,1.0,6.0,92,0.00,,,0.14,,2013-05-06 10:33:00,
2013-05-06 05:41:00,54.0,52.0,29.84,North,355,1.0,6.0,92,0.00,,,0.14,,2013-05-06 10:41:00,
2013-05-06 05:52:00,54.0,51.0,29.83,WNW,287,0.0,0.0,91,0.00,,,0.14,,2013-05-06 10:52:00,
2013-05-06 06:02:00,54.0,52.0,29.84,WNW,298,0.0,0.0,92,0.00,,,0.07,,2013-05-06 11:02:00,
2013-05-06 06:12:00,54.0,52.0,29.84,WNW,298,0.0,0.0,92,0.00,,,0.07,,2013-05-06 11:12:00,
2013-05-06 06:22:00,54.0,52.0,29.84,West,281,0.0,0.0,92,0.00,,,0.07,,2013-05-06 11:22:00,
2013-05-06 06:31:00,54.0,52.0,29.84,West,281,0.0,0.0,92,0.00,,,0.07,,2013-05-06 11:31:00,
2013-05-06 06:42:00,54.0,52.0,29.84,West,281,0.0,0.0,92,0.00,,,0.07,,2013-05-06 11:42:00,
2013-05-06 06:52:00,55.0,53.0,29.84,WNW,296,1.0,4.0,92,0.00,,,0.07,,2013-05-06 11:52:00,
2013-05-06 07:01:00,55.0,53.0,29.85,WNW,296,0.0,3.0,92,0.00,,,0.03,,2013-05-06 12:01:00,
2013-05-06 07:12:00,55.0,53.0,29.85,WNW,296,0.0,3.0,92,0.00,,,0.03,,2013-05-06 12:12:00,
2013-05-06 07:21:00,55.0,53.0,29.85,North,9,0.0,5.0,92,0.00,,,0.03,,2013-05-06 12:21:00,
2013-05-06 07:32:00,55.0,53.0,29.85,West,267,0.0,5.0,92,0.00,,,0.03,,2013-05-06 12:32:00,
2013-05-06 07:42:00,55.0,53.0,29.85,West,267,0.0,5.0,92,0.00,,,0.03,,2013-05-06 12:42:00,
2013-05-06 07:52:00,56.0,53.0,29.86,WNW,295,0.0,7.0,91,0.00,,,0.03,,2013-05-06 12:52:00,
2013-05-06 08:01:00,56.0,53.0,29.86,West,269,1.0,7.0,91,0.00,,,0.02,,2013-05-06 13:01:00,
2013-05-06 08:11:00,56.0,53.0,29.86,West,269,1.0,7.0,91,0.00,,,0.02,,2013-05-06 13:11:00,
2013-05-06 08:21:00,56.0,53.0,29.86,NNW,331,1.0,6.0,91,0.00,,,0.02,,2013-05-06 13:21:00,
2013-05-06 08:32:00,56.0,53.0,29.87,NW,311,0.0,6.0,90,0.00,,,0.02,,2013-05-06 13:32:00,
2013-05-06 08:42:00,56.0,53.0,29.87,NW,311,0.0,6.0,90,0.00,,,0.02,,2013-05-06 13:42:00,
2013-05-06 08:52:00,56.0,53.0,29.87,NW,315,1.0,6.0,90,0.00,,,0.02,,2013-05-06 13:52:00,
2013-05-06 09:01:00,56.0,54.0,29.88,NNW,342,0.0,7.0,92,0.00,,,0.00,,2013-05-06 14:01:00,
2013-05-06 09:11:00,56.0,54.0,29.88,NNW,342,0.0,7.0,92,0.00,,,0.00,,2013-05-06 14:11:00,
2013-05-06 09:21:00,56.0,54.0,29.88,NNW,346,2.0,6.0,93,0.00,,,0.00,,2013-05-06 14:21:00,
2013-05-06 09:32:00,56.0,54.0,29.88,NNW,348,0.0,8.0,94,0.01,,,0.01,,2013-05-06 14:32:00,
2013-05-06 09:42:00,56.0,54.0,29.88,NNW,348,0.0,8.0,94,0.01,,,0.01,,2013-05-06 14:42:00,
2013-05-06 09:52:00,57.0,55.0,29.87,NNE,17,5.0,9.0,93,0.01,,,0.01,,2013-05-06 14:52:00,
2013-05-06 10:01:00,57.0,55.0,29.87,NW,324,4.0,7.0,93,0.01,,,0.01,,2013-05-06 15:01:00,
2013-05-06 10:11:00,57.0,55.0,29.87,NW,324,4.0,7.0,93,0.01,,,0.01,,2013-05-06 15:11:00,
2013-05-06 10:21:00,57.0,55.0,29.88,NNE,13,3.0,8.0,93,0.01,,,0.01,,2013-05-06 15:21:00,
2013-05-06 10:33:00,58.0,56.0,29.88,North,355,4.0,7.0,92,0.00,,,0.01,,2013-05-06 15:33:00,
2013-05-06 10:42:00,58.0,56.0,29.88,North,355,4.0,7.0,92,0.00,,,0.01,,2013-05-06 15:42:00,
2013-05-06 10:53:00,59.0,56.0,29.88,North,360,3.0,11.0,89,0.00,,,0.01,,2013-05-06 15:53:00,
2013-05-06 11:03:00,60.0,55.0,29.88,NNW,332,6.0,9.0,84,0.00,,,0.01,,2013-05-06 16:03:00,
2013-05-06 11:13:00,60.0,55.0,29.88,NNW,332,6.0,9.0,84,0.00,,,0.01,,2013-05-06 16:13:00,
2013-05-06 11:23:00,60.0,54.0,29.88,NNE,24,4.0,11.0,80,0.00,,,0.01,,2013-05-06 16:23:00,
2013-05-06 11:32:00,60.0,55.0,29.88,NNE,32,5.0,10.0,84,0.00,,,0.01,,2013-05-06 16:32:00,
2013-05-06 11:42:00,60.0,55.0,29.88,NNE,32,5.0,10.0,84,0.00,,,0.01,,2013-05-06 16:42:00,
2013-05-06 11:52:00,59.0,55.0,29.88,North,355,5.0,9.0,86,0.00,,,0.01,,2013-05-06 16:52:00,
2013-05-06 12:02:00,59.0,54.0,29.88,NW,307,7.0,12.0,84,0.00,,,0.01,,2013-05-06 17:02:00,
2013-05-06 12:12:00,59.0,54.0,29.88,NW,307,7.0,12.0,84,0.00,,,0.01,,2013-05-06 17:12:00,
2013-05-06 12:23:00,59.0,54.0,29.88,NNW,340,3.0,13.0,85,0.00,,,0.01,,2013-05-06 17:23:00,
2013-05-06 12:31:00,61.0,56.0,29.88,NE,39,3.0,10.0,83,0.00,,,0.01,,2013-05-06 17:31:00,
2013-05-06 12:42:00,61.0,56.0,29.88,NE,39,3.0,10.0,83,0.00,,,0.01,,2013-05-06 17:42:00,
2013-05-06 12:52:00,62.0,55.0,29.88,NNW,345,9.0,13.0,77,0.00,,,0.01,,2013-05-06 17:52:00,
2013-05-06 13:01:00,60.0,53.0,29.88,North,360,6.0,18.0,79,0.00,,,0.01,,2013-05-06 18:01:00,
2013-05-06 13:12:00,60.0,53.0,29.88,North,360,6.0,18.0,79,0.00,,,0.01,,2013-05-06 18:12:00,
2013-05-06 13:21:00,61.0,54.0,29.88,NNW,329,5.0,10.0,78,0.00,,,0.01,,2013-05-06 18:21:00,
2013-05-06 13:31:00,63.0,54.0,29.88,North,10,7.0,12.0,73,0.00,,,0.01,,2013-05-06 18:31:00,
2013-05-06 13:43:00,63.0,54.0,29.88,North,10,7.0,12.0,73,0.00,,,0.01,,2013-05-06 18:43:00,
2013-05-06 13:52:00,62.0,54.0,29.88,NNW,335,5.0,11.0,74,0.00,,,0.01,,2013-05-06 18:52:00,
2013-05-06 14:01:00,63.0,55.0,29.88,NNW,340,4.0,10.0,75,0.00,,,0.01,,2013-05-06 19:01:00,
2013-05-06 14:11:00,63.0,55.0,29.88,NNW,340,4.0,10.0,75,0.00,,,0.01,,2013-05-06 19:11:00,
2013-05-06 14:22:00,63.0,55.0,29.88,North,360,7.0,14.0,75,0.00,,,0.01,,2013-05-06 19:22:00,
2013-05-06 14:32:00,63.0,55.0,29.88,NNW,342,6.0,13.0,75,0.00,,,0.01,,2013-05-06 19:32:00,
2013-05-06 14:41:00,63.0,55.0,29.88,NNW,342,6.0,13.0,75,0.00,,,0.01,,2013-05-06 19:41:00,
2013-05-06 14:52:00,63.0,55.0,29.88,North,355,6.0,12.0,75,0.00,,,0.01,,2013-05-06 19:52:00,
2013-05-06 15:02:00,63.0,55.0,29.88,NNW,329,6.0,11.0,76,0.00,,,0.01,,2013-05-06 20:02:00,
2013-05-06 15:11:00,63.0,55.0,29.88,NNW,329,6.0,11.0,76,0.00,,,0.01,,2013-05-06 20:11:00,
2013-05-06 15:21:00,64.0,56.0,29.88,NW,313,5.0,9.0,75,0.00,,,0.01,,2013-05-06 20:21:00,
2013-05-06 15:32:00,63.0,55.0,29.87,North,360,4.0,10.0,76,0.00,,,0.01,,2013-05-06 20:32:00,
2013-05-06 15:42:00,63.0,55.0,29.87,North,360,4.0,10.0,76,0.00,,,0.01,,2013-05-06 20:42:00,
2013-05-06 15:52:00,63.0,55.0,29.87,North,5,4.0,8.0,76,0.00,,,0.01,,2013-05-06 20:52:00,
2013-05-06 16:01:00,64.0,56.0,29.87,NW,318,4.0,9.0,75,0.00,,,0.01,,2013-05-06 21:01:00,
2013-05-06 16:11:00,64.0,56.0,29.87,NW,318,4.0,9.0,75,0.00,,,0.01,,2013-05-06 21:11:00,
2013-05-06 16:21:00,63.0,55.0,29.86,NNW,335,4.0,11.0,75,0.00,,,0.01,,2013-05-06 21:21:00,
2013-05-06 16:32:00,63.0,55.0,29.87,NNW,341,6.0,12.0,75,0.00,,,0.01,,2013-05-06 21:32:00,
2013-05-06 16:43:00,63.0,55.0,29.87,NNW,341,6.0,12.0,75,0.00,,,0.01,,2013-05-06 21:43:00,
2013-05-06 16:53:00,62.0,56.0,29.87,North,9,0.0,0.0,82,0.00,,,0.00,,2013-05-06 21:53:00,
2013-05-06 17:03:00,62.0,56.0,29.87,North,5,0.0,6.0,81,0.00,,,0.00,,2013-05-06 22:03:00,
2013-05-06 17:12:00,62.0,56.0,29.87,North,5,0.0,6.0,81,0.00,,,0.00,,2013-05-06 22:12:00,
2013-05-06 17:22:00,63.0,57.0,29.87,NNE,25,0.0,6.0,80,0.00,,,0.00,,2013-05-06 22:22:00,
2013-05-06 17:33:00,63.0,56.0,29.88,NW,308,1.0,8.0,79,0.00,,,0.00,,2013-05-06 22:33:00,
2013-05-06 17:45:00,63.0,56.0,29.88,NW,308,1.0,8.0,79,0.00,,,0.00,,2013-05-06 22:45:00,
2013-05-06 17:52:00,63.0,56.0,29.88,North,11,2.0,6.0,79,0.00,,,0.00,,2013-05-06 22:52:00,
2013-05-06 18:02:00,63.0,56.0,29.88,North,350,0.0,4.0,78,-99.99,,,-99.99,,2013-05-06 23:02:00,
2013-05-06 18:12:00,63.0,56.0,29.88,North,350,0.0,4.0,78,-99.99,,,-99.99,,2013-05-06 23:12:00,
2013-05-06 18:22:00,63.0,56.0,29.88,NNW,347,0.0,1.0,78,-99.99,,,-99.99,,2013-05-06 23:22:00,
2013-05-06 18:32:00,63.0,56.0,29.88,North,350,2.0,7.0,78,-99.99,,,-99.99,,2013-05-06 23:32:00,
2013-05-06 18:41:00,63.0,56.0,29.88,North,350,2.0,7.0,78,-99.99,,,-99.99,,2013-05-06 23:41:00,
2013-05-06 18:52:00,63.0,56.0,29.88,NNE,13,0.0,3.0,78,-99.99,,,-99.99,,2013-05-06 23:52:00,
2013-05-06 19:01:00,63.0,56.0,29.88,WNW,296,0.0,5.0,78,0.00,,,-99.99,,2013-05-07 00:01:00,
2013-05-06 19:11:00,63.0,56.0,29.88,WNW,296,0.0,5.0,78,0.00,,,-99.99,,2013-05-07 00:11:00,
2013-05-06 19:21:00,63.0,56.0,29.88,NW,304,0.0,0.0,79,0.00,,,-99.99,,2013-05-07 00:21:00,
2013-05-06 19:31:00,63.0,56.0,29.89,WNW,296,0.0,0.0,79,0.00,,,-99.99,,2013-05-07 00:31:00,
2013-05-06 19:41:00,63.0,56.0,29.89,WNW,296,0.0,0.0,79,0.00,,,-99.99,,2013-05-07 00:41:00,
2013-05-06 19:52:00,63.0,57.0,29.89,WNW,296,0.0,0.0,81,0.00,,,-99.99,,2013-05-07 00:52:00,
2013-05-06 20:01:00,62.0,56.0,29.89,WNW,296,0.0,0.0,82,0.00,,,-99.99,,2013-05-07 01:01:00,
2013-05-06 20:11:00,62.0,56.0,29.89,WNW,296,0.0,0.0,82,0.00,,,-99.99,,2013-05-07 01:11:00,
2013-05-06 20:21:00,62.0,57.0,29.90,West,279,0.0,4.0,84,0.00,,,-99.99,,2013-05-07 01:21:00,
2013-05-06 20:32:00,61.0,56.0,29.90,West,280,0.0,0.0,85,0.00,,,-99.99,,2013-05-07 01:32:00,
2013-05-06 20:42:00,61.0,56.0,29.90,West,280,0.0,0.0,85,0.00,,,-99.99,,2013-05-07 01:42:00,
2013-05-06 20:53:00,61.0,57.0,29.91,West,280,0.0,0.0,86,0.00,,,-99.99,,2013-05-07 01:53:00,
2013-05-06 21:02:00,61.0,57.0,29.91,West,279,0.0,0.0,87,0.00,,,-99.99,,2013-05-07 02:02:00,
2013-05-06 21:11:00,61.0,57.0,29.91,West,279,0.0,0.0,87,0.00,,,-99.99,,2013-05-07 02:11:00,
2013-05-06 21:21:00,60.0,56.0,29.91,West,279,0.0,0.0,88,0.00,,,-99.99,,2013-05-07 02:21:00,
2013-05-06 21:31:00,60.0,56.0,29.92,West,280,0.0,3.0,88,0.00,,,-99.99,,2013-05-07 02:31:00,
2013-05-06 21:41:00,60.0,56.0,29.92,West,280,0.0,3.0,88,0.00,,,-99.99,,2013-05-07 02:41:00,
2013-05-06 21:52:00,59.0,56.0,29.92,West,279,0.0,1.0,89,0.00,,,-99.99,,2013-05-07 02:52:00,
2013-05-06 22:01:00,59.0,56.0,29.92,West,279,0.0,0.0,90,0.00,,,-99.99,,2013-05-07 03:01:00,
2013-05-06 22:11:00,59.0,56.0,29.92,West,279,0.0,0.0,90,0.00,,,-99.99,,2013-05-07 03:11:00,
2013-05-06 22:22:00,59.0,56.0,29.93,West,279,0.0,2.0,90,0.00,,,-99.99,,2013-05-07 03:22:00,
2013-05-06 22:32:00,58.0,55.0,29.92,West,279,0.0,0.0,91,0.00,,,-99.99,,2013-05-07 03:32:00,
2013-05-06 22:42:00,58.0,55.0,29.92,West,279,0.0,0.0,91,0.00,,,-99.99,,2013-05-07 03:42:00,
2013-05-06 22:53:00,58.0,55.0,29.92,West,279,0.0,0.0,91,0.00,,,-99.99,,2013-05-07 03:53:00,
2013-05-06 23:02:00,58.0,55.0,29.93,West,279,0.0,0.0,91,0.00,,,-99.99,,2013-05-07 04:02:00,
2013-05-06 23:12:00,58.0,55.0,29.93,West,279,0.0,0.0,91,0.00,,,-99.99,,2013-05-07 04:12:00,
2013-05-06 23:23:00,57.0,54.0,29.93,West,279,0.0,0.0,91,0.00,,,-99.99,,2013-05-07 04:23:00,
2013-05-06 23:33:00,57.0,55.0,29.92,West,280,0.0,1.0,92,0.00,,,-99.99,,2013-05-07 04:33:00,
2013-05-06 23:42:00,57.0,55.0,29.92,West,280,0.0,1.0,92,0.00,,,-99.99,,2013-05-07 04:42:00,
2013-05-06 23:53:00,57.0,55.0,29.92,West,281,0.0,4.0,93,0.00,,,-99.99,,2013-05-07 04:53:00,